Weather in Poroy

Russia / Lipetsk Oblast     52°52′35″N   39°28′12″E
temp.,
°C
wind,
m/s
gust,
m/s
humid.,
%
clouds,
%
prec.,
mm/h
press.,
hPa
HPBL,
m
11 may, tue
tue1100:00+8nne9199096 0.0 1020501
03:00+8nne81892100 0.0 1020440
06:00+8ne9189225 0.1 1019506
09:00+13ne81381100 0.1 1020606
12:00+12ese61287100 0.3 1022749
15:00+13ese61073100 0.6 10231296
18:00+13e58669 0.1 10241062
21:00+9se37833 0.1 1026125
12 may, wed
wed1200:00+7ese34895 0.0 102664
03:00+6ene339143 0.0 102645
06:00+7ne368764 0.0 1026154
09:00+12ne577254 0.0 1024620
12:00+11ne5680100 1.0 1022597
15:00+13ene446896 1.1 1021796
18:00+14e46702 0.0 1019921
21:00+9e5109284 0.0 1020244
13 may, thu
thu1300:00+9e41193100 0.0 1020268
03:00+8ese379636 0.0 1019152
06:00+10e3694100 0.0 1019161
09:00+14ene3483100 0.4 1017344
12:00+17ese447799 0.1 1016902
15:00+18se356849 0.5 10161102
18:00+18sse35755 1.1 1016437
21:00+14se33880 1.5 101741
14 may, fri
fri1400:00+13se2289100 0.0 101718
03:00+12ese3592100 0.0 101782
06:00+13e41093100 0.0 1017220
09:00+18ese698153 0.0 1017464
12:00+23se796328 0.0 10161300
15:00+25se695984 0.0 10141564
18:00+23se6116821 0.0 1013559
21:00+18sse3793100 2.6 1013134
15 may, sat
sat1500:00+17e229337 4.6 101234
03:00+15ese49932 4.6 1011171
06:00+15se4893100 0.0 1011203
09:00+20s4680100 0.8 1010426
12:00+20sse488295 0.8 1011491
15:00+22ssw6971100 1.6 10111070
18:00+20ssw47770 4.3 1011437
21:00+16wsw358897 4.9 101275